#datetime,building,power
2023-11-14T00:00:00,rvs,46.45
2023-11-14T00:01:00,rvs,49.16
2023-11-14T00:02:00,rvs,52.16
2023-11-14T00:03:00,rvs,64.72
2023-11-14T00:04:00,rvs,68.40
2023-11-14T00:05:00,rvs,72.65
2023-11-14T00:06:00,rvs,85.78
2023-11-14T00:07:00,rvs,55.98
2023-11-14T00:08:00,rvs,46.60
2023-11-14T00:09:00,rvs,44.80
2023-11-14T00:10:00,rvs,24.41
2023-11-14T00:11:00,rvs,24.63
2023-11-14T00:12:00,rvs,25.41
2023-11-14T00:13:00,rvs,27.15
2023-11-14T00:14:00,rvs,31.68
2023-11-14T00:15:00,rvs,36.06
2023-11-14T00:16:00,rvs,41.71
2023-11-14T00:17:00,rvs,63.14
2023-11-14T00:18:00,rvs,70.75
2023-11-14T00:19:00,rvs,72.81
2023-11-14T00:20:00,rvs,75.48
2023-11-14T00:21:00,rvs,78.50
2023-11-14T00:22:00,rvs,85.49
2023-11-14T00:23:00,rvs,82.02
2023-11-14T00:24:00,rvs,85.37
2023-11-14T00:25:00,rvs,95.23
2023-11-14T00:26:00,rvs,94.79
2023-11-14T00:27:00,rvs,90.71
2023-11-14T00:28:00,rvs,90.22
2023-11-14T00:29:00,rvs,44.15
2023-11-14T00:30:00,rvs,43.46
2023-11-14T00:31:00,rvs,53.66
2023-11-14T00:32:00,rvs,53.42
2023-11-14T00:33:00,rvs,58.15
2023-11-14T00:34:00,rvs,59.37
2023-11-14T00:35:00,rvs,63.17
2023-11-14T00:36:00,rvs,65.45
2023-11-14T00:37:00,rvs,56.22
2023-11-14T00:38:00,rvs,41.59
2023-11-14T00:39:00,rvs,38.08
2023-11-14T00:40:00,rvs,38.64
2023-11-14T00:41:00,rvs,28.22
2023-11-14T00:42:00,rvs,22.61
2023-11-14T00:43:00,rvs,30.37
2023-11-14T00:44:00,rvs,32.85
2023-11-14T00:45:00,rvs,30.28
2023-11-14T00:46:00,rvs,29.35
2023-11-14T00:47:00,rvs,34.24
2023-11-14T00:48:00,rvs,36.56
2023-11-14T00:49:00,rvs,33.11
2023-11-14T00:50:00,rvs,39.00
2023-11-14T00:51:00,rvs,51.18
2023-11-14T00:52:00,rvs,51.42
2023-11-14T00:53:00,rvs,49.69
2023-11-14T00:54:00,rvs,50.96
2023-11-14T00:55:00,rvs,28.94
2023-11-14T00:56:00,rvs,30.61
2023-11-14T00:57:00,rvs,19.60
2023-11-14T00:58:00,rvs,20.05
2023-11-14T00:59:00,rvs,21.63
2023-11-14T01:00:00,rvs,19.58
2023-11-14T01:01:00,rvs,23.57
2023-11-14T01:02:00,rvs,25.99
2023-11-14T01:03:00,rvs,45.18
2023-11-14T01:04:00,rvs,53.28
2023-11-14T01:05:00,rvs,54.00
2023-11-14T01:06:00,rvs,60.61
2023-11-14T01:07:00,rvs,45.52
2023-11-14T01:08:00,rvs,43.39
2023-11-14T01:09:00,rvs,44.46
2023-11-14T01:10:00,rvs,35.60
2023-11-14T01:11:00,rvs,29.94
2023-11-14T01:12:00,rvs,34.49
2023-11-14T01:13:00,rvs,38.28
2023-11-14T01:14:00,rvs,41.39
2023-11-14T01:15:00,rvs,42.25
2023-11-14T01:16:00,rvs,42.33
2023-11-14T01:17:00,rvs,47.24
2023-11-14T01:18:00,rvs,47.66
2023-11-14T01:19:00,rvs,35.55
2023-11-14T01:20:00,rvs,36.82
2023-11-14T01:21:00,rvs,43.20
2023-11-14T01:22:00,rvs,44.58
2023-11-14T01:23:00,rvs,40.27
2023-11-14T01:24:00,rvs,42.16
2023-11-14T01:25:00,rvs,42.08
2023-11-14T01:26:00,rvs,44.76
2023-11-14T01:27:00,rvs,39.17
2023-11-14T01:28:00,rvs,36.45
2023-11-14T01:29:00,rvs,40.62
2023-11-14T01:30:00,rvs,42.86
2023-11-14T01:31:00,rvs,32.57
2023-11-14T01:32:00,rvs,40.03
2023-11-14T01:33:00,rvs,38.54
2023-11-14T01:34:00,rvs,41.19
2023-11-14T01:35:00,rvs,37.04
2023-11-14T01:36:00,rvs,41.85
2023-11-14T01:37:00,rvs,44.54
2023-11-14T01:38:00,rvs,38.92
2023-11-14T01:39:00,rvs,47.14
2023-11-14T01:40:00,rvs,49.54
2023-11-14T01:41:00,rvs,50.99
2023-11-14T01:42:00,rvs,51.50
2023-11-14T01:43:00,rvs,33.05
2023-11-14T01:44:00,rvs,34.50
2023-11-14T01:45:00,rvs,35.00
2023-11-14T01:46:00,rvs,41.87
2023-11-14T01:47:00,rvs,26.31
2023-11-14T01:48:00,rvs,29.27
2023-11-14T01:49:00,rvs,30.17
2023-11-14T01:50:00,rvs,22.49
2023-11-14T01:51:00,rvs,28.81
2023-11-14T01:52:00,rvs,28.05
2023-11-14T01:53:00,rvs,32.03
2023-11-14T01:54:00,rvs,22.11
2023-11-14T01:55:00,rvs,25.94
2023-11-14T01:56:00,rvs,34.96
2023-11-14T01:57:00,rvs,38.30
2023-11-14T01:58:00,rvs,38.49
2023-11-14T01:59:00,rvs,40.31
2023-11-14T02:00:00,rvs,39.27
2023-11-14T02:01:00,rvs,43.19
2023-11-14T02:02:00,rvs,46.36
2023-11-14T02:03:00,rvs,42.99
2023-11-14T02:04:00,rvs,38.93
2023-11-14T02:05:00,rvs,37.98
2023-11-14T02:06:00,rvs,36.37
2023-11-14T02:07:00,rvs,36.25
2023-11-14T02:08:00,rvs,36.58
2023-11-14T02:09:00,rvs,40.03
2023-11-14T02:10:00,rvs,41.17
2023-11-14T02:11:00,rvs,43.53
2023-11-14T02:12:00,rvs,45.94
2023-11-14T02:13:00,rvs,51.43
2023-11-14T02:14:00,rvs,40.29
2023-11-14T02:15:00,rvs,43.32
2023-11-14T02:16:00,rvs,42.34
2023-11-14T02:17:00,rvs,51.06
2023-11-14T02:18:00,rvs,40.49
2023-11-14T02:19:00,rvs,39.18
2023-11-14T02:20:00,rvs,43.12
2023-11-14T02:21:00,rvs,52.67
2023-11-14T02:22:00,rvs,54.27
2023-11-14T02:23:00,rvs,56.01
2023-11-14T02:24:00,rvs,56.78
2023-11-14T02:25:00,rvs,37.57
2023-11-14T02:26:00,rvs,32.71
2023-11-14T02:27:00,rvs,30.66
2023-11-14T02:28:00,rvs,30.56
2023-11-14T02:29:00,rvs,35.25
2023-11-14T02:30:00,rvs,31.34
2023-11-14T02:31:00,rvs,33.49
2023-11-14T02:32:00,rvs,37.10
2023-11-14T02:33:00,rvs,38.30
2023-11-14T02:34:00,rvs,40.98
2023-11-14T02:35:00,rvs,40.29
2023-11-14T02:36:00,rvs,35.88
2023-11-14T02:37:00,rvs,34.01
2023-11-14T02:38:00,rvs,34.09
2023-11-14T02:39:00,rvs,33.76
2023-11-14T02:40:00,rvs,33.20
2023-11-14T02:41:00,rvs,25.95
2023-11-14T02:42:00,rvs,27.25
2023-11-14T02:43:00,rvs,28.11
2023-11-14T02:44:00,rvs,40.32
2023-11-14T02:45:00,rvs,38.32
2023-11-14T02:46:00,rvs,43.57
2023-11-14T02:47:00,rvs,31.78
2023-11-14T02:48:00,rvs,29.74
2023-11-14T02:49:00,rvs,31.98
2023-11-14T02:50:00,rvs,35.16
2023-11-14T02:51:00,rvs,36.10
2023-11-14T02:52:00,rvs,36.70
2023-11-14T02:53:00,rvs,22.75
2023-11-14T02:54:00,rvs,20.35
2023-11-14T02:55:00,rvs,22.40
2023-11-14T02:56:00,rvs,24.11
2023-11-14T02:57:00,rvs,25.47
2023-11-14T02:58:00,rvs,32.06
2023-11-14T02:59:00,rvs,22.12
2023-11-14T03:00:00,rvs,20.79
2023-11-14T03:01:00,rvs,21.00
2023-11-14T03:02:00,rvs,20.95
2023-11-14T03:03:00,rvs,24.36
2023-11-14T03:04:00,rvs,22.93
2023-11-14T03:05:00,rvs,22.23
2023-11-14T03:06:00,rvs,29.01
2023-11-14T03:07:00,rvs,32.30
2023-11-14T03:08:00,rvs,31.92
2023-11-14T03:09:00,rvs,37.11
2023-11-14T03:10:00,rvs,39.80
2023-11-14T03:11:00,rvs,43.03
2023-11-14T03:12:00,rvs,42.00
2023-11-14T03:13:00,rvs,45.15
2023-11-14T03:14:00,rvs,40.32
2023-11-14T03:15:00,rvs,26.94
2023-11-14T03:16:00,rvs,27.68
2023-11-14T03:17:00,rvs,26.95
2023-11-14T03:18:00,rvs,43.98
2023-11-14T03:19:00,rvs,39.93
2023-11-14T03:20:00,rvs,39.37
2023-11-14T03:21:00,rvs,42.26
2023-11-14T03:22:00,rvs,26.15
2023-11-14T03:23:00,rvs,26.12
2023-11-14T03:24:00,rvs,38.73
2023-11-14T03:25:00,rvs,43.54
2023-11-14T03:26:00,rvs,48.53
2023-11-14T03:27:00,rvs,44.64
2023-11-14T03:28:00,rvs,30.41
2023-11-14T03:29:00,rvs,28.75
2023-11-14T03:30:00,rvs,30.20
2023-11-14T03:31:00,rvs,28.28
2023-11-14T03:32:00,rvs,23.00
2023-11-14T03:33:00,rvs,13.97
2023-11-14T03:34:00,rvs,17.49
2023-11-14T03:35:00,rvs,19.70
2023-11-14T03:36:00,rvs,20.91
2023-11-14T03:37:00,rvs,25.02
2023-11-14T03:38:00,rvs,29.54
2023-11-14T03:39:00,rvs,29.28
2023-11-14T03:40:00,rvs,31.61
2023-11-14T03:41:00,rvs,41.77
2023-11-14T03:42:00,rvs,43.67
2023-11-14T03:43:00,rvs,44.36
2023-11-14T03:44:00,rvs,45.78
2023-11-14T03:45:00,rvs,46.09
2023-11-14T03:46:00,rvs,47.77
2023-11-14T03:47:00,rvs,36.07
2023-11-14T03:48:00,rvs,27.31
2023-11-14T03:49:00,rvs,22.44
2023-11-14T03:50:00,rvs,21.84
2023-11-14T03:51:00,rvs,21.98
2023-11-14T03:52:00,rvs,21.77
2023-11-14T03:53:00,rvs,25.05
2023-11-14T03:54:00,rvs,35.24
2023-11-14T03:55:00,rvs,35.82
2023-11-14T03:56:00,rvs,37.11
2023-11-14T03:57:00,rvs,40.34
2023-11-14T03:58:00,rvs,41.45
2023-11-14T03:59:00,rvs,45.13
2023-11-14T04:00:00,rvs,48.60
2023-11-14T04:01:00,rvs,42.05
2023-11-14T04:02:00,rvs,37.93
2023-11-14T04:03:00,rvs,24.55
2023-11-14T04:04:00,rvs,18.98
2023-11-14T04:05:00,rvs,18.42
2023-11-14T04:06:00,rvs,20.49
2023-11-14T04:07:00,rvs,34.62
2023-11-14T04:08:00,rvs,38.76
2023-11-14T04:09:00,rvs,43.73
2023-11-14T04:10:00,rvs,45.46
2023-11-14T04:11:00,rvs,47.52
2023-11-14T04:12:00,rvs,47.09
2023-11-14T04:13:00,rvs,46.56
2023-11-14T04:14:00,rvs,52.32
2023-11-14T04:15:00,rvs,57.74
2023-11-14T04:16:00,rvs,55.83
2023-11-14T04:17:00,rvs,43.11
2023-11-14T04:18:00,rvs,66.17
2023-11-14T04:19:00,rvs,69.01
2023-11-14T04:20:00,rvs,68.35
2023-11-14T04:21:00,rvs,73.27
2023-11-14T04:22:00,rvs,52.45
2023-11-14T04:23:00,rvs,52.12
2023-11-14T04:24:00,rvs,54.53
2023-11-14T04:25:00,rvs,59.33
2023-11-14T04:26:00,rvs,62.50
2023-11-14T04:27:00,rvs,63.44
2023-11-14T04:28:00,rvs,49.37
2023-11-14T04:29:00,rvs,52.94
2023-11-14T04:30:00,rvs,58.77
2023-11-14T04:31:00,rvs,61.20
2023-11-14T04:32:00,rvs,61.87
2023-11-14T04:33:00,rvs,55.01
2023-11-14T04:34:00,rvs,54.66
2023-11-14T04:35:00,rvs,50.13
2023-11-14T04:36:00,rvs,52.20
2023-11-14T04:37:00,rvs,58.34
2023-11-14T04:38:00,rvs,62.62
2023-11-14T04:39:00,rvs,63.07
2023-11-14T04:40:00,rvs,68.10
2023-11-14T04:41:00,rvs,70.30
2023-11-14T04:42:00,rvs,58.74
2023-11-14T04:43:00,rvs,62.30
2023-11-14T04:44:00,rvs,42.77
2023-11-14T04:45:00,rvs,41.75
2023-11-14T04:46:00,rvs,41.54
2023-11-14T04:47:00,rvs,43.47
2023-11-14T04:48:00,rvs,43.57
2023-11-14T04:49:00,rvs,32.87
2023-11-14T04:50:00,rvs,33.99
2023-11-14T04:51:00,rvs,35.18
2023-11-14T04:52:00,rvs,37.83
2023-11-14T04:53:00,rvs,27.05
2023-11-14T04:54:00,rvs,24.71
2023-11-14T04:55:00,rvs,27.03
2023-11-14T04:56:00,rvs,27.39
2023-11-14T04:57:00,rvs,29.16
2023-11-14T04:58:00,rvs,32.77
2023-11-14T04:59:00,rvs,40.40
2023-11-14T05:00:00,rvs,40.89
2023-11-14T05:01:00,rvs,56.63
2023-11-14T05:02:00,rvs,54.46
2023-11-14T05:03:00,rvs,51.53
2023-11-14T05:04:00,rvs,38.38
2023-11-14T05:05:00,rvs,35.65
2023-11-14T05:06:00,rvs,36.02
2023-11-14T05:07:00,rvs,46.58
2023-11-14T05:08:00,rvs,49.29
2023-11-14T05:09:00,rvs,49.20
2023-11-14T05:10:00,rvs,47.97
2023-11-14T05:11:00,rvs,23.70
2023-11-14T05:12:00,rvs,15.51
2023-11-14T05:13:00,rvs,16.16
2023-11-14T05:14:00,rvs,18.33
2023-11-14T05:15:00,rvs,22.75
2023-11-14T05:16:00,rvs,19.95
2023-11-14T05:17:00,rvs,27.00
2023-11-14T05:18:00,rvs,31.65
2023-11-14T05:19:00,rvs,32.90
2023-11-14T05:20:00,rvs,36.57
2023-11-14T05:21:00,rvs,27.79
2023-11-14T05:22:00,rvs,43.62
2023-11-14T05:23:00,rvs,31.48
2023-11-14T05:24:00,rvs,32.21
2023-11-14T05:25:00,rvs,31.77
2023-11-14T05:26:00,rvs,14.51
2023-11-14T05:27:00,rvs,15.51
2023-11-14T05:28:00,rvs,16.39
2023-11-14T05:29:00,rvs,21.40
2023-11-14T05:30:00,rvs,23.13
2023-11-14T05:31:00,rvs,23.73
2023-11-14T05:32:00,rvs,31.58
2023-11-14T05:33:00,rvs,35.72
2023-11-14T05:34:00,rvs,40.05
2023-11-14T05:35:00,rvs,44.55
2023-11-14T05:36:00,rvs,46.41
2023-11-14T05:37:00,rvs,40.51
2023-11-14T05:38:00,rvs,41.63
2023-11-14T05:39:00,rvs,42.90
2023-11-14T05:40:00,rvs,39.79
2023-11-14T05:41:00,rvs,44.54
2023-11-14T05:42:00,rvs,46.76
2023-11-14T05:43:00,rvs,51.01
2023-11-14T05:44:00,rvs,48.23
2023-11-14T05:45:00,rvs,36.99
2023-11-14T05:46:00,rvs,35.86
2023-11-14T05:47:00,rvs,40.27
2023-11-14T05:48:00,rvs,41.74
2023-11-14T05:49:00,rvs,36.32
2023-11-14T05:50:00,rvs,39.29
2023-11-14T05:51:00,rvs,38.67
2023-11-14T05:52:00,rvs,39.09
2023-11-14T05:53:00,rvs,40.66
2023-11-14T05:54:00,rvs,29.84
2023-11-14T05:55:00,rvs,30.18
2023-11-14T05:56:00,rvs,31.03
2023-11-14T05:57:00,rvs,31.57
2023-11-14T05:58:00,rvs,37.38
2023-11-14T05:59:00,rvs,34.34
2023-11-14T06:00:00,rvs,33.91
2023-11-14T06:01:00,rvs,41.83
2023-11-14T06:02:00,rvs,32.33
2023-11-14T06:03:00,rvs,26.59
2023-11-14T06:04:00,rvs,18.45
2023-11-14T06:05:00,rvs,20.84
2023-11-14T06:06:00,rvs,21.05
2023-11-14T06:07:00,rvs,15.62
2023-11-14T06:08:00,rvs,12.33
2023-11-14T06:09:00,rvs,12.86
2023-11-14T06:10:00,rvs,13.27
2023-11-14T06:11:00,rvs,14.62
2023-11-14T06:12:00,rvs,15.83
2023-11-14T06:13:00,rvs,18.48
2023-11-14T06:14:00,rvs,22.78
2023-11-14T06:15:00,rvs,27.89
2023-11-14T06:16:00,rvs,29.58
2023-11-14T06:17:00,rvs,30.73
2023-11-14T06:18:00,rvs,38.62
2023-11-14T06:19:00,rvs,44.61
2023-11-14T06:20:00,rvs,42.27
2023-11-14T06:21:00,rvs,43.85
2023-11-14T06:22:00,rvs,44.14
2023-11-14T06:23:00,rvs,39.12
2023-11-14T06:24:00,rvs,22.90
2023-11-14T06:25:00,rvs,20.97
2023-11-14T06:26:00,rvs,21.48
2023-11-14T06:27:00,rvs,15.66
2023-11-14T06:28:00,rvs,15.48
2023-11-14T06:29:00,rvs,17.78
2023-11-14T06:30:00,rvs,18.87
2023-11-14T06:31:00,rvs,22.63
2023-11-14T06:32:00,rvs,23.16
2023-11-14T06:33:00,rvs,41.83
2023-11-14T06:34:00,rvs,45.73
2023-11-14T06:35:00,rvs,53.14
2023-11-14T06:36:00,rvs,53.70
2023-11-14T06:37:00,rvs,41.65
2023-11-14T06:38:00,rvs,39.67
2023-11-14T06:39:00,rvs,39.40
2023-11-14T06:40:00,rvs,34.63
2023-11-14T06:41:00,rvs,15.27
2023-11-14T06:42:00,rvs,16.85
2023-11-14T06:43:00,rvs,18.49
2023-11-14T06:44:00,rvs,19.31
2023-11-14T06:45:00,rvs,22.66
2023-11-14T06:46:00,rvs,23.57
2023-11-14T06:47:00,rvs,32.77
2023-11-14T06:48:00,rvs,35.32
2023-11-14T06:49:00,rvs,36.26
2023-11-14T06:50:00,rvs,50.48
2023-11-14T06:51:00,rvs,52.12
2023-11-14T06:52:00,rvs,51.97
2023-11-14T06:53:00,rvs,52.47
2023-11-14T06:54:00,rvs,34.62
2023-11-14T06:55:00,rvs,34.06
2023-11-14T06:56:00,rvs,29.84
2023-11-14T06:57:00,rvs,31.80
2023-11-14T06:58:00,rvs,36.67
2023-11-14T06:59:00,rvs,39.53
2023-11-14T07:00:00,rvs,41.23
2023-11-14T07:01:00,rvs,48.03
2023-11-14T07:02:00,rvs,54.08
2023-11-14T07:03:00,rvs,56.02
2023-11-14T07:04:00,rvs,60.19
2023-11-14T07:05:00,rvs,59.10
2023-11-14T07:06:00,rvs,60.71
2023-11-14T07:07:00,rvs,58.47
2023-11-14T07:08:00,rvs,57.06
2023-11-14T07:09:00,rvs,57.30
2023-11-14T07:10:00,rvs,54.53
2023-11-14T07:11:00,rvs,52.59
2023-11-14T07:12:00,rvs,28.41
2023-11-14T07:13:00,rvs,15.44
2023-11-14T07:14:00,rvs,15.55
2023-11-14T07:15:00,rvs,15.89
2023-11-14T07:16:00,rvs,28.75
2023-11-14T07:17:00,rvs,28.17
2023-11-14T07:18:00,rvs,27.52
2023-11-14T07:19:00,rvs,31.23
2023-11-14T07:20:00,rvs,22.15
2023-11-14T07:21:00,rvs,23.80
2023-11-14T07:22:00,rvs,27.35
2023-11-14T07:23:00,rvs,26.42
2023-11-14T07:24:00,rvs,30.29
2023-11-14T07:25:00,rvs,25.24
2023-11-14T07:26:00,rvs,25.28
2023-11-14T07:27:00,rvs,19.96
2023-11-14T07:28:00,rvs,27.48
2023-11-14T07:29:00,rvs,36.98
2023-11-14T07:30:00,rvs,38.41
2023-11-14T07:31:00,rvs,43.46
2023-11-14T07:32:00,rvs,46.05
2023-11-14T07:33:00,rvs,49.09
2023-11-14T07:34:00,rvs,50.57
2023-11-14T07:35:00,rvs,51.40
2023-11-14T07:36:00,rvs,56.80
2023-11-14T07:37:00,rvs,59.68
2023-11-14T07:38:00,rvs,55.47
2023-11-14T07:39:00,rvs,44.25
2023-11-14T07:40:00,rvs,43.97
2023-11-14T07:41:00,rvs,54.08
2023-11-14T07:42:00,rvs,59.45
2023-11-14T07:43:00,rvs,49.88
2023-11-14T07:44:00,rvs,51.83
2023-11-14T07:45:00,rvs,50.23
2023-11-14T07:46:00,rvs,48.40
2023-11-14T07:47:00,rvs,44.95
2023-11-14T07:48:00,rvs,37.76
2023-11-14T07:49:00,rvs,55.74
2023-11-14T07:50:00,rvs,47.17
2023-11-14T07:51:00,rvs,48.95
2023-11-14T07:52:00,rvs,58.34
2023-11-14T07:53:00,rvs,63.88
2023-11-14T07:54:00,rvs,64.54
2023-11-14T07:55:00,rvs,81.39
2023-11-14T07:56:00,rvs,88.62
2023-11-14T07:57:00,rvs,91.26
2023-11-14T07:58:00,rvs,86.31
2023-11-14T07:59:00,rvs,58.05
2023-11-14T08:00:00,rvs,56.82
2023-11-14T08:01:00,rvs,59.35
2023-11-14T08:02:00,rvs,41.82
2023-11-14T08:03:00,rvs,41.53
2023-11-14T08:04:00,rvs,42.71
2023-11-14T08:05:00,rvs,44.25
2023-11-14T08:06:00,rvs,38.96
2023-11-14T08:07:00,rvs,41.57
2023-11-14T08:08:00,rvs,46.19
2023-11-14T08:09:00,rvs,63.20
2023-11-14T08:10:00,rvs,66.89
2023-11-14T08:11:00,rvs,66.29
2023-11-14T08:12:00,rvs,69.72
2023-11-14T08:13:00,rvs,50.51
2023-11-14T08:14:00,rvs,48.25
2023-11-14T08:15:00,rvs,45.91
2023-11-14T08:16:00,rvs,50.68
2023-11-14T08:17:00,rvs,53.61
2023-11-14T08:18:00,rvs,57.71
2023-11-14T08:19:00,rvs,69.08
2023-11-14T08:20:00,rvs,80.80
2023-11-14T08:21:00,rvs,83.22
2023-11-14T08:22:00,rvs,86.21
2023-11-14T08:23:00,rvs,92.66
2023-11-14T08:24:00,rvs,80.18
2023-11-14T08:25:00,rvs,89.69
2023-11-14T08:26:00,rvs,96.66
2023-11-14T08:27:00,rvs,64.74
2023-11-14T08:28:00,rvs,77.06
2023-11-14T08:29:00,rvs,79.77
2023-11-14T08:30:00,rvs,59.62
2023-11-14T08:31:00,rvs,42.61
2023-11-14T08:32:00,rvs,51.50
2023-11-14T08:33:00,rvs,59.41
2023-11-14T08:34:00,rvs,42.41
2023-11-14T08:35:00,rvs,44.05
2023-11-14T08:36:00,rvs,50.87
2023-11-14T08:37:00,rvs,57.62
2023-11-14T08:38:00,rvs,46.85
2023-11-14T08:39:00,rvs,51.41
2023-11-14T08:40:00,rvs,56.21
2023-11-14T08:41:00,rvs,70.46
2023-11-14T08:42:00,rvs,69.21
2023-11-14T08:43:00,rvs,72.41
2023-11-14T08:44:00,rvs,69.15
2023-11-14T08:45:00,rvs,72.81
2023-11-14T08:46:00,rvs,73.00
2023-11-14T08:47:00,rvs,69.61
2023-11-14T08:48:00,rvs,69.07
2023-11-14T08:49:00,rvs,60.19
2023-11-14T08:50:00,rvs,47.61
2023-11-14T08:51:00,rvs,47.24
2023-11-14T08:52:00,rvs,33.09
2023-11-14T08:53:00,rvs,36.45
2023-11-14T08:54:00,rvs,37.25
2023-11-14T08:55:00,rvs,25.45
2023-11-14T08:56:00,rvs,27.77
2023-11-14T08:57:00,rvs,38.60
2023-11-14T08:58:00,rvs,39.33
2023-11-14T08:59:00,rvs,40.16
2023-11-14T09:00:00,rvs,42.20
2023-11-14T09:01:00,rvs,40.90
2023-11-14T09:02:00,rvs,42.46
2023-11-14T09:03:00,rvs,48.38
2023-11-14T09:04:00,rvs,46.75
2023-11-14T09:05:00,rvs,41.03
2023-11-14T09:06:00,rvs,41.45
2023-11-14T09:07:00,rvs,42.41
2023-11-14T09:08:00,rvs,46.32
2023-11-14T09:09:00,rvs,46.13
2023-11-14T09:10:00,rvs,48.80
2023-11-14T09:11:00,rvs,40.11
2023-11-14T09:12:00,rvs,37.11
2023-11-14T09:13:00,rvs,37.88
2023-11-14T09:14:00,rvs,33.75
2023-11-14T09:15:00,rvs,49.95
2023-11-14T09:16:00,rvs,45.96
2023-11-14T09:17:00,rvs,67.37
2023-11-14T09:18:00,rvs,64.67
2023-11-14T09:19:00,rvs,69.12
2023-11-14T09:20:00,rvs,63.79
2023-11-14T09:21:00,rvs,39.83
2023-11-14T09:22:00,rvs,38.99
2023-11-14T09:23:00,rvs,42.72
2023-11-14T09:24:00,rvs,47.41
2023-11-14T09:25:00,rvs,52.53
2023-11-14T09:26:00,rvs,53.46
2023-11-14T09:27:00,rvs,65.38
2023-11-14T09:28:00,rvs,68.13
2023-11-14T09:29:00,rvs,67.85
2023-11-14T09:30:00,rvs,64.21
2023-11-14T09:31:00,rvs,61.93
2023-11-14T09:32:00,rvs,69.58
2023-11-14T09:33:00,rvs,71.48
2023-11-14T09:34:00,rvs,61.16
2023-11-14T09:35:00,rvs,65.15
2023-11-14T09:36:00,rvs,57.49
2023-11-14T09:37:00,rvs,51.50
2023-11-14T09:38:00,rvs,37.96
2023-11-14T09:39:00,rvs,39.59
2023-11-14T09:40:00,rvs,44.02
2023-11-14T09:41:00,rvs,42.15
2023-11-14T09:42:00,rvs,35.42
2023-11-14T09:43:00,rvs,39.42
2023-11-14T09:44:00,rvs,36.15
2023-11-14T09:45:00,rvs,40.68
2023-11-14T09:46:00,rvs,47.21
2023-11-14T09:47:00,rvs,52.82
2023-11-14T09:48:00,rvs,61.57
2023-11-14T09:49:00,rvs,55.59
2023-11-14T09:50:00,rvs,52.11
2023-11-14T09:51:00,rvs,53.08
2023-11-14T09:52:00,rvs,39.71
2023-11-14T09:53:00,rvs,36.58
2023-11-14T09:54:00,rvs,57.86
2023-11-14T09:55:00,rvs,34.70
2023-11-14T09:56:00,rvs,33.30
2023-11-14T09:57:00,rvs,30.21
2023-11-14T09:58:00,rvs,32.23
2023-11-14T09:59:00,rvs,31.78
2023-11-14T10:00:00,rvs,26.07
2023-11-14T10:01:00,rvs,32.09
2023-11-14T10:02:00,rvs,33.88
2023-11-14T10:03:00,rvs,31.24
2023-11-14T10:04:00,rvs,29.28
2023-11-14T10:05:00,rvs,24.15
2023-11-14T10:06:00,rvs,21.77
2023-11-14T10:07:00,rvs,37.61
2023-11-14T10:08:00,rvs,39.82
2023-11-14T10:09:00,rvs,43.97
2023-11-14T10:10:00,rvs,38.87
2023-11-14T10:11:00,rvs,18.47
2023-11-14T10:12:00,rvs,19.22
2023-11-14T10:13:00,rvs,42.25
2023-11-14T10:14:00,rvs,26.29
2023-11-14T10:15:00,rvs,29.37
2023-11-14T10:16:00,rvs,26.00
2023-11-14T10:17:00,rvs,28.19
2023-11-14T10:18:00,rvs,27.65
2023-11-14T10:19:00,rvs,33.87
2023-11-14T10:20:00,rvs,43.22
2023-11-14T10:21:00,rvs,44.32
2023-11-14T10:22:00,rvs,32.04
2023-11-14T10:23:00,rvs,30.66
2023-11-14T10:24:00,rvs,29.97
2023-11-14T10:25:00,rvs,18.09
2023-11-14T10:26:00,rvs,23.98
2023-11-14T10:27:00,rvs,27.78
2023-11-14T10:28:00,rvs,49.59
2023-11-14T10:29:00,rvs,63.82
2023-11-14T10:30:00,rvs,47.16
2023-11-14T10:31:00,rvs,42.50
2023-11-14T10:32:00,rvs,26.24
2023-11-14T10:33:00,rvs,25.95
2023-11-14T10:34:00,rvs,25.33
2023-11-14T10:35:00,rvs,24.54
2023-11-14T10:36:00,rvs,25.49
2023-11-14T10:37:00,rvs,18.97
2023-11-14T10:38:00,rvs,24.79
2023-11-14T10:39:00,rvs,26.39
2023-11-14T10:40:00,rvs,22.62
2023-11-14T10:41:00,rvs,23.37
2023-11-14T10:42:00,rvs,25.56
2023-11-14T10:43:00,rvs,19.48
2023-11-14T10:44:00,rvs,30.96
2023-11-14T10:45:00,rvs,33.77
2023-11-14T10:46:00,rvs,33.39
2023-11-14T10:47:00,rvs,44.73
2023-11-14T10:48:00,rvs,41.77
2023-11-14T10:49:00,rvs,45.36
2023-11-14T10:50:00,rvs,46.12
2023-11-14T10:51:00,rvs,44.41
2023-11-14T10:52:00,rvs,48.93
2023-11-14T10:53:00,rvs,48.48
2023-11-14T10:54:00,rvs,63.53
2023-11-14T10:55:00,rvs,50.45
2023-11-14T10:56:00,rvs,36.33
2023-11-14T10:57:00,rvs,30.24
2023-11-14T10:58:00,rvs,36.53
2023-11-14T10:59:00,rvs,30.30
2023-11-14T11:00:00,rvs,37.99
2023-11-14T11:01:00,rvs,23.47
2023-11-14T11:02:00,rvs,20.27
2023-11-14T11:03:00,rvs,24.17
2023-11-14T11:04:00,rvs,23.65
2023-11-14T11:05:00,rvs,23.96
2023-11-14T11:06:00,rvs,14.10
2023-11-14T11:07:00,rvs,13.05
2023-11-14T11:08:00,rvs,29.75
2023-11-14T11:09:00,rvs,21.08
2023-11-14T11:10:00,rvs,18.82
2023-11-14T11:11:00,rvs,23.88
2023-11-14T11:12:00,rvs,23.03
2023-11-14T11:13:00,rvs,44.97
2023-11-14T11:14:00,rvs,28.41
2023-11-14T11:15:00,rvs,30.70
2023-11-14T11:16:00,rvs,36.55
2023-11-14T11:17:00,rvs,28.27
2023-11-14T11:18:00,rvs,33.10
2023-11-14T11:19:00,rvs,37.86
2023-11-14T11:20:00,rvs,43.35
2023-11-14T11:21:00,rvs,47.95
2023-11-14T11:22:00,rvs,49.59
2023-11-14T11:23:00,rvs,58.93
2023-11-14T11:24:00,rvs,64.49
2023-11-14T11:25:00,rvs,47.92
2023-11-14T11:26:00,rvs,42.28
2023-11-14T11:27:00,rvs,44.33
2023-11-14T11:28:00,rvs,43.50
2023-11-14T11:29:00,rvs,43.93
2023-11-14T11:30:00,rvs,47.84
2023-11-14T11:31:00,rvs,44.15
2023-11-14T11:32:00,rvs,44.55
2023-11-14T11:33:00,rvs,19.69
2023-11-14T11:34:00,rvs,17.40
2023-11-14T11:35:00,rvs,17.28
2023-11-14T11:36:00,rvs,17.07
2023-11-14T11:37:00,rvs,17.01
2023-11-14T11:38:00,rvs,18.43
2023-11-14T11:39:00,rvs,44.87
2023-11-14T11:40:00,rvs,26.29
2023-11-14T11:41:00,rvs,32.35
2023-11-14T11:42:00,rvs,36.44
2023-11-14T11:43:00,rvs,39.02
2023-11-14T11:44:00,rvs,49.11
2023-11-14T11:45:00,rvs,58.83
2023-11-14T11:46:00,rvs,35.48
2023-11-14T11:47:00,rvs,36.53
2023-11-14T11:48:00,rvs,34.32
2023-11-14T11:49:00,rvs,52.41
2023-11-14T11:50:00,rvs,57.72
2023-11-14T11:51:00,rvs,56.72
2023-11-14T11:52:00,rvs,58.30
2023-11-14T11:53:00,rvs,21.90
2023-11-14T11:54:00,rvs,19.87
2023-11-14T11:55:00,rvs,21.61
2023-11-14T11:56:00,rvs,27.97
2023-11-14T11:57:00,rvs,33.83
2023-11-14T11:58:00,rvs,32.40
2023-11-14T11:59:00,rvs,36.68
2023-11-14T12:00:00,rvs,39.71
2023-11-14T12:01:00,rvs,42.95
2023-11-14T12:02:00,rvs,54.42
2023-11-14T12:03:00,rvs,60.01
2023-11-14T12:04:00,rvs,51.62
2023-11-14T12:05:00,rvs,41.67
2023-11-14T12:06:00,rvs,42.71
2023-11-14T12:07:00,rvs,38.75
2023-11-14T12:08:00,rvs,38.67
2023-11-14T12:09:00,rvs,40.78
2023-11-14T12:10:00,rvs,38.86
2023-11-14T12:11:00,rvs,23.37
2023-11-14T12:12:00,rvs,27.04
2023-11-14T12:13:00,rvs,29.99
2023-11-14T12:14:00,rvs,30.51
2023-11-14T12:15:00,rvs,28.97
2023-11-14T12:16:00,rvs,22.37
2023-11-14T12:17:00,rvs,23.92
2023-11-14T12:18:00,rvs,26.48
2023-11-14T12:19:00,rvs,27.46
2023-11-14T12:20:00,rvs,27.20
2023-11-14T12:21:00,rvs,35.92
2023-11-14T12:22:00,rvs,38.12
2023-11-14T12:23:00,rvs,43.88
2023-11-14T12:24:00,rvs,48.06
2023-11-14T12:25:00,rvs,54.42
2023-11-14T12:26:00,rvs,59.00
2023-11-14T12:27:00,rvs,60.10
2023-11-14T12:28:00,rvs,59.21
2023-11-14T12:29:00,rvs,58.27
2023-11-14T12:30:00,rvs,52.56
2023-11-14T12:31:00,rvs,43.20
2023-11-14T12:32:00,rvs,43.44
2023-11-14T12:33:00,rvs,46.98
2023-11-14T12:34:00,rvs,50.08
2023-11-14T12:35:00,rvs,53.88
2023-11-14T12:36:00,rvs,52.73
2023-11-14T12:37:00,rvs,52.15
2023-11-14T12:38:00,rvs,52.62
2023-11-14T12:39:00,rvs,53.39
2023-11-14T12:40:00,rvs,55.42
2023-11-14T12:41:00,rvs,49.21
2023-11-14T12:42:00,rvs,48.55
2023-11-14T12:43:00,rvs,44.83
2023-11-14T12:44:00,rvs,36.65
2023-11-14T12:45:00,rvs,39.10
2023-11-14T12:46:00,rvs,41.61
2023-11-14T12:47:00,rvs,47.17
2023-11-14T12:48:00,rvs,47.34
2023-11-14T12:49:00,rvs,49.05
2023-11-14T12:50:00,rvs,43.79
2023-11-14T12:51:00,rvs,42.33
2023-11-14T12:52:00,rvs,42.54
2023-11-14T12:53:00,rvs,36.72
2023-11-14T12:54:00,rvs,56.19
2023-11-14T12:55:00,rvs,37.29
2023-11-14T12:56:00,rvs,40.03
2023-11-14T12:57:00,rvs,42.27
2023-11-14T12:58:00,rvs,46.44
2023-11-14T12:59:00,rvs,44.96
2023-11-14T13:00:00,rvs,52.25
2023-11-14T13:01:00,rvs,51.20
2023-11-14T13:02:00,rvs,69.82
2023-11-14T13:03:00,rvs,76.17
2023-11-14T13:04:00,rvs,67.16
2023-11-14T13:05:00,rvs,68.42
2023-11-14T13:06:00,rvs,43.45
2023-11-14T13:07:00,rvs,40.48
2023-11-14T13:08:00,rvs,41.40
2023-11-14T13:09:00,rvs,54.50
2023-11-14T13:10:00,rvs,55.37
2023-11-14T13:11:00,rvs,46.36
2023-11-14T13:12:00,rvs,49.06
2023-11-14T13:13:00,rvs,49.46
2023-11-14T13:14:00,rvs,49.53
2023-11-14T13:15:00,rvs,56.87
2023-11-14T13:16:00,rvs,56.89
2023-11-14T13:17:00,rvs,39.37
2023-11-14T13:18:00,rvs,28.94